Date String (YYYY-MM-DD hh:mm:ss) UTC,Instrument flags,absolute air pressure of the measurement (hPa),sample flow rate (lpm),inlet stack bypass flow (lpm),air temperature of the measurement (°C),ambient temperature measured by the external sensor (°C),aerosol sample conditioner tube jacket temperature (°C),OPC LED temperature (°C),internal box temperature (°C),relative humidity of the measurement (%),span deviation,mass concentration of particles derived from Lorenz-Mie calculation of OPC scattering (μg/m³),mass concentration of particles derived from Lorenz-Mie calculation of OPC scattering (μg/m³),mass concentration of particles derived from Lorenz-Mie calculation of OPC scattering (μg/m³)
DateTimeUTC,F1_M11,P_M11,Q1_M11,Q2_M11,T1_M11,T2_M11,T3_M11,T4_M11,T5_M11,U1_M11,ZSPAN_M11,X2_M11,X0_M11,X1_M11
2023-06-01 04:00:00,SystemResetWarning,0827.1,5.01,000.00,028.8,027.4,000.0,037.2,030.4,24.4,0000.0,0003.95,0008.90,0003.14
2023-06-01 04:01:00,SystemResetWarning,0827.1,4.99,000.00,028.8,027.3,000.0,037.2,030.4,24.5,0000.0,0003.94,0008.72,0003.13
2023-06-01 04:02:00,SystemResetWarning,0827.2,5.00,000.00,028.7,027.3,000.0,037.2,030.3,24.2,0000.0,0003.90,0007.85,0003.11
2023-06-01 04:03:00,SystemResetWarning,0827.1,4.99,000.00,028.7,027.3,000.0,037.2,030.4,23.8,0000.0,0003.84,0007.76,0003.08
2023-06-01 04:04:00,SystemResetWarning,0827.1,4.99,000.00,028.7,027.3,000.0,037.2,030.3,23.5,0000.0,0003.83,0007.72,0003.04
2023-06-01 04:05:00,SystemResetWarning,0827.1,4.99,000.00,028.7,027.2,000.0,037.2,030.3,23.6,0000.0,0003.79,0007.62,0003.00
2023-06-01 04:06:00,SystemResetWarning,0827.1,4.99,000.00,028.7,027.2,000.0,037.2,030.3,23.7,0000.0,0003.75,0007.50,0002.96
2023-06-01 04:07:00,SystemResetWarning,0827.0,5.00,000.00,028.7,027.2,000.0,037.2,030.3,23.6,0000.0,0003.77,0007.51,0002.95
2023-06-01 04:08:00,SystemResetWarning,0827.0,5.00,000.00,028.7,027.2,000.0,037.2,030.3,23.6,0000.0,0003.79,0007.51,0002.92
2023-06-01 04:09:00,SystemResetWarning,0826.9,5.00,000.00,028.7,027.2,000.0,037.2,030.3,23.9,0000.0,0003.75,0007.43,0002.87
2023-06-01 04:10:00,SystemResetWarning,0826.9,5.00,000.00,028.7,027.2,000.0,037.2,030.3,23.9,0000.0,0003.72,0006.90,0002.83
2023-06-01 04:11:00,SystemResetWarning,0826.9,5.00,000.00,028.7,027.2,000.0,037.2,030.3,23.7,0000.0,0003.74,0006.90,0002.81
2023-06-01 04:12:00,SystemResetWarning,0826.9,5.00,000.00,028.7,027.2,000.0,037.2,030.3,23.7,0000.0,0003.76,0007.33,0002.80
2023-06-01 04:13:00,SystemResetWarning,0826.9,5.01,000.00,028.7,027.2,000.0,037.2,030.4,23.7,0000.0,0003.75,0007.40,0002.80
2023-06-01 04:14:00,SystemResetWarning,0826.9,5.00,000.00,028.7,027.2,000.0,037.2,030.4,23.9,0000.0,0003.77,0007.47,0002.83
2023-06-01 04:15:00,SystemResetWarning,0826.8,5.00,000.00,028.7,027.2,000.0,037.2,030.4,23.9,0000.0,0003.76,0007.49,0002.83
2023-06-01 04:16:00,SystemResetWarning,0826.8,4.99,000.00,028.7,027.2,000.0,037.2,030.4,24.4,0000.0,0003.76,0007.57,0002.84
2023-06-01 04:17:00,SystemResetWarning,0826.8,4.99,000.00,028.8,027.2,000.0,037.2,030.4,24.3,0000.0,0003.76,0007.67,0002.86
2023-06-01 04:18:00,SystemResetWarning,0826.8,5.00,000.00,028.7,027.2,000.0,037.2,030.4,23.9,0000.0,0003.72,0007.67,0002.85
2023-06-01 04:19:00,SystemResetWarning,0826.8,5.00,000.00,028.7,027.2,000.0,037.2,030.4,24.2,0000.0,0003.70,0007.63,0002.84
2023-06-01 04:20:00,SystemResetWarning,0826.8,5.00,000.00,028.7,027.2,000.0,037.2,030.4,24.0,0000.0,0003.67,0007.52,0002.83
2023-06-01 04:21:00,SystemResetWarning,0826.8,5.00,000.00,028.8,027.2,000.0,037.2,030.4,23.6,0000.0,0003.69,0007.54,0002.83
2023-06-01 04:22:00,SystemResetWarning,0826.8,5.00,000.00,028.8,027.2,000.0,037.2,030.4,23.5,0000.0,0003.62,0007.41,0002.82
2023-06-01 04:23:00,SystemResetWarning,0826.8,5.00,000.00,028.8,027.2,000.0,037.2,030.4,23.8,0000.0,0003.60,0007.20,0002.82
2023-06-01 04:24:00,SystemResetWarning,0826.8,5.00,000.00,028.8,027.2,000.0,037.2,030.4,23.3,0000.0,0003.56,0006.98,0002.79
2023-06-01 04:25:00,SystemResetWarning,0826.8,5.00,000.00,028.8,027.2,000.0,037.2,030.4,22.5,0000.0,0003.54,0006.77,0002.76
2023-06-01 04:26:00,SystemResetWarning,0826.7,5.00,000.00,028.8,027.2,000.0,037.2,030.4,22.6,0000.0,0003.52,0006.67,0002.73
2023-06-01 04:27:00,SystemResetWarning,0826.7,5.00,000.00,028.8,027.2,000.0,037.2,030.4,22.4,0000.0,0003.49,0006.51,0002.70
2023-06-01 04:28:00,SystemResetWarning,0826.6,4.99,000.00,028.8,027.2,000.0,037.2,030.4,21.4,0000.0,0003.49,0006.32,0002.66
2023-06-01 04:29:00,SystemResetWarning,0826.6,5.00,000.00,028.8,027.2,000.0,037.2,030.4,21.7,0000.0,0003.54,0006.52,0002.66
2023-06-01 04:30:00,SystemResetWarning,0826.6,5.00,000.00,028.8,027.2,000.0,037.2,030.4,22.3,0000.0,0003.55,0006.58,0002.63
2023-06-01 04:31:00,SystemResetWarning,0826.6,5.01,000.00,028.8,027.2,000.0,037.2,030.4,22.6,0000.0,0003.57,0007.22,0002.62
2023-06-01 04:32:00,SystemResetWarning,0826.6,5.01,000.00,028.8,027.2,000.0,037.2,030.4,22.9,0000.0,0003.61,0007.46,0002.63
2023-06-01 04:33:00,SystemResetWarning,0826.6,4.99,000.00,028.8,027.1,000.0,037.2,030.4,22.5,0000.0,0003.64,0007.55,0002.64
2023-06-01 04:34:00,SystemResetWarning,0826.6,5.00,000.00,028.8,027.1,000.0,037.2,030.4,22.5,0000.0,0003.74,0007.83,0002.66
2023-06-01 04:35:00,SystemResetWarning,0826.6,5.00,000.00,028.8,027.1,000.0,037.2,030.4,23.1,0000.0,0003.75,0007.79,0002.67
2023-06-01 04:36:00,SystemResetWarning,0826.5,5.00,000.00,028.8,027.1,000.0,037.2,030.4,23.5,0000.0,0003.76,0007.84,0002.68
2023-06-01 04:37:00,SystemResetWarning,0826.4,5.00,000.00,028.8,027.1,000.0,037.2,030.4,23.8,0000.0,0003.78,0007.89,0002.68
2023-06-01 04:38:00,SystemResetWarning,0826.5,5.01,000.00,028.8,027.1,000.0,037.2,030.4,23.7,0000.0,0003.83,0008.04,0002.70
2023-06-01 04:39:00,SystemResetWarning,0826.4,4.99,000.00,028.8,027.1,000.0,037.2,030.4,23.5,0000.0,0003.85,0008.10,0002.72
2023-06-01 04:40:00,SystemResetWarning,0826.4,5.00,000.00,028.8,027.1,000.0,037.2,030.4,23.0,0000.0,0003.83,0008.22,0002.74
2023-06-01 04:41:00,SystemResetWarning,0826.4,5.00,000.00,028.8,027.1,000.0,037.2,030.4,23.1,0000.0,0003.84,0008.49,0002.74
2023-06-01 04:42:00,SystemResetWarning,0826.4,5.01,000.00,028.8,027.1,000.0,037.2,030.4,22.9,0000.0,0003.87,0008.54,0002.77
2023-06-01 04:43:00,SystemResetWarning,0826.4,5.00,000.00,028.8,027.1,000.0,037.2,030.4,22.8,0000.0,0003.91,0008.33,0002.79
2023-06-01 04:44:00,SystemResetWarning,0826.4,5.00,000.00,028.8,027.1,000.0,037.2,030.4,23.0,0000.0,0003.90,0008.36,0002.77
2023-06-01 04:45:00,SystemResetWarning,0826.4,5.00,000.00,028.8,027.1,000.0,037.2,030.4,22.7,0000.0,0003.86,0008.20,0002.75
2023-06-01 04:46:00,SystemResetWarning,0826.4,5.00,000.00,028.8,027.1,000.0,037.2,030.4,22.0,0000.0,0003.81,0008.09,0002.73
2023-06-01 04:47:00,SystemResetWarning,0826.4,5.00,000.00,028.8,027.1,000.0,037.2,030.4,21.5,0000.0,0003.81,0008.14,0002.72
2023-06-01 04:48:00,SystemResetWarning,0826.4,5.00,000.00,028.8,027.1,000.0,037.2,030.4,21.3,0000.0,0003.85,0008.20,0002.73
2023-06-01 04:49:00,SystemResetWarning,0826.4,5.00,000.00,028.8,027.1,000.0,037.2,030.4,21.4,0000.0,0003.81,0008.39,0002.71
2023-06-01 04:50:00,SystemResetWarning,0826.4,5.00,000.00,028.8,027.1,000.0,037.2,030.4,21.9,0000.0,0003.85,0008.85,0002.71
2023-06-01 04:51:00,SystemResetWarning,0826.4,5.00,000.00,028.8,027.2,000.0,037.2,030.4,21.9,0000.0,0003.84,0008.84,0002.70
2023-06-01 04:52:00,SystemResetWarning,0826.4,5.00,000.00,028.8,027.2,000.0,037.2,030.4,22.0,0000.0,0003.82,0008.44,0002.68
2023-06-01 04:53:00,SystemResetWarning,0826.4,5.00,000.00,028.8,027.2,000.0,037.2,030.4,22.5,0000.0,0003.83,0008.40,0002.68
2023-06-01 04:54:00,SystemResetWarning,0826.4,5.00,000.00,028.8,027.2,000.0,037.2,030.4,22.4,0000.0,0003.78,0008.30,0002.66
2023-06-01 04:55:00,SystemResetWarning,0826.4,5.00,000.00,028.8,027.2,000.0,037.2,030.4,22.0,0000.0,0003.74,0008.23,0002.64
2023-06-01 04:56:00,SystemResetWarning,0826.4,5.00,000.00,028.8,027.2,000.0,037.2,030.4,21.8,0000.0,0003.73,0008.13,0002.64
2023-06-01 04:57:00,SystemResetWarning,0826.4,4.99,000.00,028.8,027.3,000.0,037.2,030.4,21.9,0000.0,0003.78,0008.27,0002.64
2023-06-01 04:58:00,SystemResetWarning,0826.4,4.99,000.00,028.8,027.3,000.0,037.2,030.5,22.3,0000.0,0003.79,0008.33,0002.62
2023-06-01 04:59:00,SystemResetWarning,0826.4,5.00,000.00,028.8,027.3,000.0,037.2,030.5,21.8,0000.0,0003.77,0008.34,0002.62
